SCP
0 0 -0 -0 -0 0 0 -0 -0 -0 0 0 0 0 0 0 0 0 0 0 0 0
0 0 0 -0 -0 -0 -0 0 -0 0 0 0 0 0 0 0 0 0 0 0 0 0
0 0 0 0 -0 -0 -0 -0 -0 -0 0 -0 -0 0 0 0 0 0 0 0 0 0
0 0 0 0 0 -0 -0 -0 -0 0 -0 0 0 0 0 0 0 0 0 0 0 0
0 0 0 0 0 0 0 -0 -0 -0 -0 -0 -0 0 0 0 0 0 0 0 0 0
0 0 0 0 0 0 0 0 -0 -0 -0 -0 -0 -0 -0 -0 -0 0 0 0 0 0
0 0 0 0 0 -0 0 -0 -0 -0 -0 -0 -0 -0 -0 -0 -0 -0 -0 0 0 0
0 0 0 0 0 0 -0 -0 -0 -0 -0 -0 -0 -0 0 0 0 0 0 0 0 0
0 0 0 0 0 0 0 -0 -0 -0 -0 -0 -0 -0 -0 -0 -0 0 0 0 0 0
0 0 0 0 0 0 0 0 0 0 0 0 0 0 -0 -0 0 0 0 0 0 0
0 0 0 0 0 0 0 0 0 0 0 0 0 -0 -0 -0 0 0 0 0 0 0
0 0 0 0 0 0 0 0 0 0 0 0 0 0 0 0 0 0 0 0 0 0
-0 -0 -0 0 0 0 0 0 0 0 0 0 0 0 0 0 0 0 0 0 0 0
0 0 0 0 0 0 0 0 0 0 0 0 0 0 0 0 0 0 0 0 0 0
Wind_Speed_500mb
21 24 22 16 12 11 8 2 13 23 27 27 32 40 45 49 53 50 48 48 50 45
27 24 35 32 28 24 14 5 4 9 16 19 28 33 38 42 44 45 43 48 50 49
21 22 30 30 28 24 25 19 7 3 7 11 18 27 34 34 32 38 48 46 43 43
17 19 20 27 26 27 25 21 17 11 5 6 17 25 25 29 27 32 35 40 40 40
6 15 19 19 22 21 23 22 23 18 17 11 10 18 22 25 26 28 34 35 33 33
9 13 16 16 16 17 17 22 23 22 19 16 16 15 16 20 24 20 16 21 23 23
9 10 13 13 14 15 16 20 24 27 28 26 19 14 12 14 20 21 21 22 27 27
11 10 11 10 9 12 16 16 17 19 23 24 26 21 14 14 18 21 20 17 15 13
9 6 4 7 14 13 13 13 14 15 17 17 17 18 13 9 6 6 3 2 4 7
9 16 7 8 11 12 14 14 15 15 15 13 15 14 13 11 10 9 10 10 8 2
26 20 16 13 9 11 13 14 11 9 8 8 9 10 14 14 12 9 10 11 9 9
32 27 24 19 15 17 12 10 6 6 11 13 12 12 9 8 13 12 8 9 8 11
42 36 30 25 21 20 19 11 8 13 13 19 18 18 10 5 1 4 8 13 17 17
46 40 35 26 25 24 16 7 8 15 19 23 20 19 12 6 4 2 10 14 21 27
Wind_Direction_500mb
60 37 30 36 45 20 17 152 219 222 229 224 219 221 219 222 223 227 231 227 228 227
81 66 55 54 46 36 29 52 149 208 224 223 220 221 220 223 230 227 226 222 228 225
91 74 60 54 58 51 47 41 37 146 189 211 221 216 215 218 225 225 221 223 221 228
84 64 62 52 52 49 41 43 49 49 101 174 198 203 206 213 224 221 221 215 216 219
63 38 47 51 44 41 42 49 56 58 59 85 149 185 191 202 205 212 210 213 221 225
84 50 50 47 37 45 45 57 53 64 70 87 108 131 159 186 198 207 209 196 198 201
96 62 49 46 46 67 76 75 72 70 75 83 94 112 146 182 203 202 193 187 195 205
104 73 56 59 78 93 99 106 84 74 82 89 95 91 99 128 136 145 146 154 171 183
110 114 46 88 126 124 130 121 98 93 92 101 112 111 118 118 131 145 142 225 243 252
185 180 185 158 128 133 128 118 116 112 100 90 103 114 107 118 140 137 140 127 117 81
181 196 190 182 171 155 153 153 149 145 133 127 126 99 97 67 77 100 105 110 113 107
194 199 198 201 195 177 170 157 166 173 170 164 150 119 122 74 64 58 106 110 120 112
198 208 205 205 195 188 182 183 192 193 183 157 149 156 176 162 198 223 180 152 146 142
198 208 209 205 188 179 182 206 189 183 175 171 169 168 177 196 243 193 172 163 144 134
Wind_Speed_850mb
21 24 22 16 12 11 8 2 13 23 27 27 32 40 45 49 53 50 48 48 50 45
27 24 35 32 28 24 14 5 4 9 16 19 28 33 38 42 44 45 43 48 50 49
21 22 30 30 28 24 25 19 7 3 7 11 18 27 34 34 32 38 48 46 43 43
17 19 20 27 26 27 25 21 17 11 5 6 17 25 25 29 27 32 35 40 40 40
6 15 19 19 22 21 23 22 23 18 17 11 10 18 22 25 26 28 34 35 33 33
9 13 16 16 16 17 17 22 23 22 19 16 16 15 16 20 24 20 16 21 23 23
9 10 13 13 14 15 16 20 24 27 28 26 19 14 12 14 20 21 21 22 27 27
11 10 11 10 9 12 16 16 17 19 23 24 26 21 14 14 18 21 20 17 15 13
9 6 4 7 14 13 13 13 14 15 17 17 17 18 13 9 6 6 3 2 4 7
9 16 7 8 11 12 14 14 15 15 15 13 15 14 13 11 10 9 10 10 8 2
26 20 16 13 9 11 13 14 11 9 8 8 9 10 14 14 12 9 10 11 9 9
32 27 24 19 15 17 12 10 6 6 11 13 12 12 9 8 13 12 8 9 8 11
42 36 30 25 21 20 19 11 8 13 13 19 18 18 10 5 1 4 8 13 17 17
46 40 35 26 25 24 16 7 8 15 19 23 20 19 12 6 4 2 10 14 21 27
Wind_Direction_850mb
60 37 30 36 45 20 17 152 219 222 229 224 219 221 219 222 223 227 231 227 228 227
81 66 55 54 46 36 29 52 149 208 224 223 220 221 220 223 230 227 226 222 228 225
91 74 60 54 58 51 47 41 37 146 189 211 221 216 215 218 225 225 221 223 221 228
84 64 62 52 52 49 41 43 49 49 101 174 198 203 206 213 224 221 221 215 216 219
63 38 47 51 44 41 42 49 56 58 59 85 149 185 191 202 205 212 210 213 221 225
84 50 50 47 37 45 45 57 53 64 70 87 108 131 159 186 198 207 209 196 198 201
96 62 49 46 46 67 76 75 72 70 75 83 94 112 146 182 203 202 193 187 195 205
104 73 56 59 78 93 99 106 84 74 82 89 95 91 99 128 136 145 146 154 171 183
110 114 46 88 126 124 130 121 98 93 92 101 112 111 118 118 131 145 142 225 243 252
185 180 185 158 128 133 128 118 116 112 100 90 103 114 107 118 140 137 140 127 117 81
181 196 190 182 171 155 153 153 149 145 133 127 126 99 97 67 77 100 105 110 113 107
194 199 198 201 195 177 170 157 166 173 170 164 150 119 122 74 64 58 106 110 120 112
198 208 205 205 195 188 182 183 192 193 183 157 149 156 176 162 198 223 180 152 146 142
198 208 209 205 188 179 182 206 189 183 175 171 169 168 177 196 243 193 172 163 144 134